| time (UTC) | temp F | wind direction | speed MPH | gust MPH | rain 1hr in | rain 24hr in | rain mn in | humidity % | barometer mb |
| 20260831134542 | 82 | 273 | 6.0 | 13.0 | 0.00 | 0.00 | 0.00 | 42 | 1016.5 |
| 20260831133546 | 82 | 273 | 6.0 | 12.0 | 0.00 | 0.00 | 0.00 | 43 | 1016.5 |
| 20260831132550 | 79 | 269 | 7.0 | 16.0 | 0.00 | 0.00 | 0.00 | 46 | 1016.6 |
| 20260831131554 | 83 | 257 | 6.0 | 16.0 | 0.00 | 0.00 | 0.00 | 41 | 1016.6 |
| 20260831130558 | 83 | 265 | 5.0 | 13.0 | 0.00 | 0.00 | 0.00 | 46 | 1016.7 |
| 20260831125603 | 82 | 266 | 6.0 | 11.0 | 0.00 | 0.00 | 0.00 | 45 | 1016.7 |
| 20260831124607 | 82 | 263 | 6.0 | 15.0 | 0.00 | 0.00 | 0.00 | 45 | 1016.8 |
| 20260831123611 | 81 | 265 | 6.0 | 12.0 | 0.00 | 0.00 | 0.00 | 47 | 1016.7 |
| 20260831122615 | 80 | 259 | 7.0 | 19.0 | 0.00 | 0.00 | 0.00 | 49 | 1016.7 |
| 20260831121620 | 79 | 260 | 6.0 | 13.0 | 0.00 | 0.00 | 0.00 | 54 | 1016.6 |
| 20260831120624 | 80 | 263 | 6.0 | 10.0 | 0.00 | 0.00 | 0.00 | 53 | 1016.7 |
| 20260831115628 | 79 | 265 | 7.0 | 12.0 | 0.00 | 0.00 | 0.00 | 53 | 1016.6 |
| 20260831114632 | 79 | 258 | 5.0 | 14.0 | 0.00 | 0.00 | 0.00 | 56 | 1016.7 |
| 20260831113636 | 79 | 246 | 5.0 | 10.0 | 0.00 | 0.00 | 0.00 | 58 | 1016.7 |
| 20260831112641 | 78 | 253 | 5.0 | 13.0 | 0.00 | 0.00 | 0.00 | 64 | 1016.7 |
| 20260831111645 | 75 | 236 | 5.0 | 12.0 | 0.00 | 0.00 | 0.00 | 71 | 1016.9 |
| 20260831110649 | 74 | 247 | 6.0 | 10.0 | 0.00 | 0.00 | 0.00 | 71 | 1016.9 |
| 20260831103702 | 68 | 233 | 4.0 | 8.0 | 0.00 | 0.00 | 0.00 | 83 | 1017.1 |
| 20260831102706 | 69 | 222 | 5.0 | 11.0 | 0.00 | 0.00 | 0.00 | 79 | 1017.1 |
| 20260831101710 | 70 | 227 | 6.0 | 12.0 | 0.00 | 0.00 | 0.00 | 79 | 1017.1 |
| 20260831100714 | 69 | 231 | 6.0 | 10.0 | 0.00 | 0.00 | 0.00 | 82 | 1017.1 |
| 20260831095719 | 67 | 227 | 5.0 | 10.0 | 0.00 | 0.00 | 0.00 | 86 | 1017.1 |
| 20260831094723 | 65 | 192 | 5.0 | 10.0 | 0.00 | 0.00 | 0.00 | 89 | 1017.3 |
| 20260831093727 | 65 | 178 | 5.0 | 8.0 | 0.00 | 0.00 | 0.00 | 91 | 1017.2 |
| 20260831092731 | 64 | 169 | 4.0 | 6.0 | 0.00 | 0.00 | 0.00 | 90 | 1017.2 |
| 20260831091736 | 63 | 179 | 5.0 | 7.0 | 0.00 | 0.00 | 0.00 | 88 | 1017.1 |
| 20260831090740 | 63 | 169 | 5.0 | 7.0 | 0.00 | 0.00 | 0.00 | 89 | 1017.1 |
| 20260831085744 | 63 | 180 | 6.0 | 8.0 | 0.00 | 0.00 | 0.00 | 89 | 1017.0 |
| 20260831084749 | 62 | 178 | 6.0 | 8.0 | 0.00 | 0.00 | 0.00 | 90 | 1016.9 |
| 20260831083753 | 62 | 178 | 5.0 | 6.0 | 0.00 | 0.00 | 0.00 | 90 | 1016.8 |
| 20260831082757 | 62 | 165 | 4.0 | 7.0 | 0.00 | 0.00 | 0.00 | 89 | 1016.6 |
| 20260831081801 | 61 | 145 | 5.0 | 6.0 | 0.00 | 0.00 | 0.00 | 91 | 1016.7 |
| 20260831080806 | 61 | 154 | 4.0 | 6.0 | 0.00 | 0.00 | 0.00 | 92 | 1016.6 |
| 20260831075810 | 60 | 152 | 3.0 | 4.0 | 0.00 | 0.00 | 0.00 | 91 | 1016.7 |
| 20260831074814 | 60 | 153 | 2.0 | 4.0 | 0.00 | 0.00 | 0.00 | 91 | 1016.5 |
| 20260831073818 | 59 | 112 | 1.0 | 2.0 | 0.00 | 0.00 | 0.00 | 91 | 1016.4 |
| 20260831072823 | 59 | 80 | 1.0 | 4.0 | 0.00 | 0.00 | 0.00 | 89 | 1016.3 |
| 20260831071827 | 59 | 143 | 1.0 | 2.0 | 0.00 | 0.00 | 0.00 | 88 | 1016.4 |
| 20260831070831 | 59 | 299 | 3.0 | 5.0 | 0.00 | 0.00 | 0.00 | 87 | 1016.4 |
| 20260831065835 | 59 | 328 | 2.0 | 4.0 | 0.00 | 0.00 | 0.00 | 85 | 1016.3 |
| 20260831064840 | 59 | 310 | 1.0 | 4.0 | 0.00 | 0.00 | 0.00 | 86 | 1016.6 |
| 20260831063844 | 59 | 315 | 4.0 | 7.0 | 0.00 | 0.00 | 0.00 | 82 | 1016.9 |
| 20260831061852 | 60 | 290 | 7.0 | 14.0 | 0.00 | 0.00 | 0.00 | 79 | 1016.8 |
| 20260831060857 | 62 | 117 | 1.0 | 4.0 | 0.00 | 0.00 | 0.00 | 73 | 1015.8 |
| 20260831055901 | 62 | 83 | 2.0 | 4.0 | 0.00 | 0.00 | 0.00 | 73 | 1015.4 |
| 20260831054905 | 62 | 84 | 2.0 | 5.0 | 0.00 | 0.00 | 0.00 | 73 | 1015.2 |
| 20260831053909 | 62 | 90 | 3.0 | 4.0 | 0.00 | 0.00 | 0.00 | 73 | 1015.2 |
| 20260831052914 | 64 | 87 | 4.0 | 5.0 | 0.00 | 0.00 | 0.00 | 70 | 1015.3 |
| 20260831051918 | 64 | 46 | 2.0 | 4.0 | 0.00 | 0.00 | 0.00 | 69 | 1015.1 |
| 20260831050922 | 64 | 118 | 1.0 | 2.0 | 0.00 | 0.00 | 0.00 | 69 | 1015.2 |
| 20260831045926 | 64 | 125 | 1.0 | 2.0 | 0.00 | 0.00 | 0.00 | 69 | 1015.2 |
| 20260831044931 | 63 | 37 | 1.0 | 2.0 | 0.00 | 0.00 | 0.00 | 69 | 1015.2 |
| 20260831043935 | 63 | 65 | 1.0 | 1.0 | 0.00 | 0.00 | 0.00 | 70 | 1015.3 |
| 20260831042939 | 63 | 127 | 2.0 | 2.0 | 0.00 | 0.00 | 0.00 | 70 | 1015.4 |
| 20260831041944 | 62 | 130 | 2.0 | 3.0 | 0.00 | 0.00 | 0.00 | 70 | 1015.3 |
| 20260831040948 | 61 | 135 | 0.0 | 2.0 | 0.00 | 0.00 | 0.00 | 72 | 1015.3 |
| 20260831035952 | 60 | 135 | 0.0 | 0.0 | 0.00 | 0.00 | 0.00 | 74 | 1015.4 |
| 20260831034956 | 60 | 145 | 0.0 | 1.0 | 0.00 | 0.00 | 0.00 | 73 | 1015.5 |
| 20260831034000 | 61 | 171 | 1.0 | 2.0 | 0.00 | 0.00 | 0.00 | 74 | 1015.5 |
| 20260831033005 | 61 | 191 | 1.0 | 2.0 | 0.00 | 0.00 | 0.00 | 73 | 1015.5 |
| 20260831032009 | 62 | 193 | 0.0 | 0.0 | 0.00 | 0.00 | 0.00 | 68 | 1015.6 |
| 20260831031013 | 62 | 63 | 0.0 | 1.0 | 0.00 | 0.00 | 0.00 | 70 | 1015.7 |
| 20260831025022 | 61 | 174 | 0.0 | 2.0 | 0.00 | 0.00 | 0.00 | 72 | 1015.7 |
| 20260831024026 | 62 | 160 | 1.0 | 2.0 | 0.00 | 0.00 | 0.00 | 73 | 1015.9 |
| 20260831023030 | 62 | 125 | 0.0 | 1.0 | 0.00 | 0.00 | 0.00 | 67 | 1015.9 |
| 20260831022034 | 62 | 315 | 1.0 | 1.0 | 0.00 | 0.00 | 0.00 | 67 | 1015.9 |
| 20260831021038 | 62 | 249 | 0.0 | 1.0 | 0.00 | 0.00 | 0.00 | 67 | 1016.0 |
| 20260831020043 | 62 | 225 | 0.0 | 0.0 | 0.00 | 0.00 | 0.00 | 67 | 1016.1 |
| 20260831015047 | 62 | 233 | 0.0 | 0.0 | 0.00 | 0.00 | 0.00 | 67 | 1016.1 |
| 20260831014051 | 62 | 225 | 0.0 | 0.0 | 0.00 | 0.00 | 0.00 | 67 | 1016.2 |
| 20260831013056 | 62 | 230 | 0.0 | 0.0 | 0.00 | 0.00 | 0.00 | 66 | 1016.2 |
| 20260831012100 | 63 | 214 | 0.0 | 1.0 | 0.00 | 0.00 | 0.00 | 66 | 1016.1 |
| 20260831011104 | 63 | 132 | 1.0 | 2.0 | 0.00 | 0.00 | 0.00 | 66 | 1016.3 |
| 20260831010108 | 64 | 310 | 3.0 | 5.0 | 0.00 | 0.00 | 0.00 | 66 | 1016.2 |
| 20260831005112 | 64 | 312 | 4.0 | 5.0 | 0.00 | 0.00 | 0.00 | 65 | 1016.3 |
| 20260831004117 | 64 | 307 | 2.0 | 4.0 | 0.00 | 0.00 | 0.00 | 64 | 1016.4 |
| 20260831003121 | 65 | 314 | 2.0 | 4.0 | 0.00 | 0.00 | 0.00 | 64 | 1016.4 |
| 20260831002125 | 65 | 310 | 3.0 | 4.0 | 0.00 | 0.00 | 0.00 | 64 | 1016.4 |
| 20260831001130 | 65 | 311 | 3.0 | 5.0 | 0.00 | 0.00 | 0.00 | 64 | 1016.4 |
| 20260831000134 | 65 | 310 | 4.0 | 6.0 | 0.00 | 0.00 | 0.00 | 64 | 1016.3 |
| 20260830235138 | 64 | 312 | 5.0 | 6.0 | 0.00 | 0.00 | 0.00 | 65 | 1016.3 |
| 20260830234142 | 64 | 311 | 3.0 | 5.0 | 0.00 | 0.00 | 0.00 | 64 | 1016.3 |
| 20260830233146 | 64 | 308 | 3.0 | 4.0 | 0.00 | 0.00 | 0.00 | 64 | 1016.3 |
| 20260830232151 | 64 | 305 | 1.0 | 3.0 | 0.00 | 0.00 | 0.00 | 62 | 1016.5 |
| 20260830231155 | 65 | 317 | 1.0 | 2.0 | 0.00 | 0.00 | 0.00 | 62 | 1016.5 |
| 20260830230159 | 65 | 310 | 3.0 | 4.0 | 0.00 | 0.00 | 0.00 | 63 | 1016.5 |
| 20260830225203 | 65 | 311 | 4.0 | 5.0 | 0.00 | 0.00 | 0.00 | 63 | 1016.5 |
| 20260830224208 | 65 | 313 | 4.0 | 5.0 | 0.00 | 0.00 | 0.00 | 62 | 1016.4 |
| 20260830223212 | 66 | 308 | 3.0 | 5.0 | 0.00 | 0.00 | 0.00 | 60 | 1016.4 |
| 20260830222216 | 67 | 298 | 3.0 | 6.0 | 0.00 | 0.00 | 0.00 | 59 | 1016.3 |
| 20260830221221 | 67 | 283 | 5.0 | 7.0 | 0.00 | 0.00 | 0.00 | 59 | 1016.4 |
| 20260830220225 | 67 | 294 | 5.0 | 8.0 | 0.00 | 0.00 | 0.00 | 59 | 1016.4 |
| 20260830215229 | 67 | 298 | 4.0 | 7.0 | 0.00 | 0.00 | 0.00 | 58 | 1016.3 |
| 20260830214233 | 68 | 293 | 4.0 | 7.0 | 0.00 | 0.00 | 0.00 | 58 | 1016.3 |
| 20260830213237 | 68 | 280 | 5.0 | 7.0 | 0.00 | 0.00 | 0.00 | 56 | 1016.3 |
| 20260830212242 | 68 | 284 | 6.0 | 9.0 | 0.00 | 0.00 | 0.00 | 57 | 1016.4 |
| 20260830211246 | 68 | 280 | 5.0 | 9.0 | 0.00 | 0.00 | 0.00 | 57 | 1016.4 |
| 20260830210250 | 68 | 287 | 4.0 | 6.0 | 0.00 | 0.00 | 0.00 | 57 | 1016.5 |
| 20260830205254 | 69 | 293 | 4.0 | 7.0 | 0.00 | 0.00 | 0.00 | 56 | 1016.4 |
| 20260830204258 | 69 | 298 | 3.0 | 7.0 | 0.00 | 0.00 | 0.00 | 55 | 1016.4 |
| 20260830203303 | 70 | 295 | 3.0 | 6.0 | 0.00 | 0.00 | 0.00 | 53 | 1016.2 |
| 20260830202307 | 71 | 280 | 4.0 | 7.0 | 0.00 | 0.00 | 0.00 | 52 | 1016.3 |
| 20260830201311 | 71 | 268 | 3.0 | 5.0 | 0.00 | 0.00 | 0.00 | 50 | 1016.4 |
| 20260830200315 | 71 | 267 | 3.0 | 6.0 | 0.00 | 0.00 | 0.00 | 51 | 1016.3 |
| 20260830195320 | 71 | 275 | 5.0 | 8.0 | 0.00 | 0.00 | 0.00 | 50 | 1016.3 |
| 20260830194324 | 71 | 273 | 5.0 | 7.0 | 0.00 | 0.00 | 0.00 | 51 | 1016.2 |
| 20260830193328 | 70 | 277 | 4.0 | 7.0 | 0.00 | 0.00 | 0.00 | 52 | 1016.2 |
| 20260830192332 | 70 | 277 | 4.0 | 6.0 | 0.00 | 0.00 | 0.00 | 52 | 1016.2 |
| 20260830191336 | 69 | 292 | 3.0 | 7.0 | 0.00 | 0.00 | 0.00 | 53 | 1016.2 |
| 20260830190341 | 69 | 296 | 2.0 | 5.0 | 0.00 | 0.00 | 0.00 | 52 | 1016.1 |
| 20260830185345 | 69 | 289 | 2.0 | 4.0 | 0.00 | 0.00 | 0.00 | 50 | 1016.0 |
| 20260830184349 | 69 | 300 | 1.0 | 2.0 | 0.00 | 0.00 | 0.00 | 49 | 1016.0 |
| 20260830183353 | 69 | 291 | 1.0 | 2.0 | 0.00 | 0.00 | 0.00 | 48 | 1015.9 |
| 20260830182358 | 70 | 288 | 0.0 | 1.0 | 0.00 | 0.00 | 0.00 | 47 | 1015.9 |
| 20260830181402 | 70 | 282 | 0.0 | 2.0 | 0.00 | 0.00 | 0.00 | 47 | 1015.7 |
| 20260830175410 | 71 | 280 | 0.0 | 1.0 | 0.00 | 0.00 | 0.00 | 48 | 1015.4 |
| 20260830174415 | 71 | 295 | 1.0 | 2.0 | 0.00 | 0.00 | 0.00 | 47 | 1015.4 |
| 20260830173419 | 72 | 297 | 1.0 | 2.0 | 0.00 | 0.00 | 0.00 | 46 | 1015.4 |
| 20260830172423 | 73 | 295 | 1.0 | 3.0 | 0.00 | 0.00 | 0.00 | 45 | 1015.3 |
| 20260830171427 | 74 | 239 | 0.0 | 2.0 | 0.00 | 0.00 | 0.00 | 44 | 1015.2 |
| 20260830170431 | 75 | 277 | 0.0 | 2.0 | 0.00 | 0.00 | 0.00 | 44 | 1015.2 |
| 20260830165436 | 76 | 291 | 1.0 | 2.0 | 0.00 | 0.00 | 0.00 | 43 | 1015.2 |
| 20260830164440 | 77 | 294 | 1.0 | 3.0 | 0.00 | 0.00 | 0.00 | 42 | 1015.1 |
| 20260830163444 | 79 | 273 | 3.0 | 5.0 | 0.00 | 0.00 | 0.00 | 41 | 1015.2 |
| 20260830162448 | 79 | 268 | 3.0 | 5.0 | 0.00 | 0.00 | 0.00 | 40 | 1015.2 |
| 20260830161453 | 80 | 267 | 3.0 | 5.0 | 0.00 | 0.00 | 0.00 | 39 | 1015.2 |
| 20260830160457 | 81 | 270 | 3.0 | 5.0 | 0.00 | 0.00 | 0.00 | 37 | 1015.1 |
| 20260830155501 | 83 | 258 | 3.0 | 6.0 | 0.00 | 0.00 | 0.00 | 35 | 1015.0 |
| 20260830154505 | 85 | 260 | 3.0 | 6.0 | 0.00 | 0.00 | 0.00 | 33 | 1015.1 |
| 20260830153509 | 86 | 267 | 5.0 | 12.0 | 0.00 | 0.00 | 0.00 | 32 | 1015.1 |
| 20260830152514 | 86 | 269 | 4.0 | 8.0 | 0.00 | 0.00 | 0.00 | 33 | 1015.2 |
| 20260830151518 | 86 | 249 | 4.0 | 9.0 | 0.00 | 0.00 | 0.00 | 32 | 1015.1 |
| 20260830150522 | 87 | 257 | 3.0 | 10.0 | 0.00 | 0.00 | 0.00 | 32 | 1015.3 |
| 20260830145526 | 86 | 228 | 4.0 | 8.0 | 0.00 | 0.00 | 0.00 | 34 | 1015.3 |
| 20260830144531 | 84 | 243 | 6.0 | 13.0 | 0.00 | 0.00 | 0.00 | 35 | 1015.3 |
| 20260830143535 | 87 | 261 | 6.0 | 15.0 | 0.00 | 0.00 | 0.00 | 32 | 1015.2 |
| 20260830142539 | 86 | 246 | 5.0 | 15.0 | 0.00 | 0.00 | 0.00 | 34 | 1015.4 |
| 20260830141543 | 87 | 266 | 6.0 | 13.0 | 0.00 | 0.00 | 0.00 | 32 | 1015.5 |
| 20260830140547 | 88 | 245 | 4.0 | 8.0 | 0.00 | 0.00 | 0.00 | 31 | 1015.6 |
| 20260830135552 | 86 | 262 | 7.0 | 11.0 | 0.00 | 0.00 | 0.00 | 31 | 1015.5 |